| time (UTC) | temp F | wind direction | speed MPH | gust MPH | rain 1hr in | rain 24hr in | rain mn in | humidity % | barometer mb |
| 20260509030005 | 52 | 175 | 0.0 | 0.0 | 0.00 | 0.01 | 0.01 | 75 | 1014.6 |
| 20260509024501 | 53 | 175 | 0.0 | 0.0 | 0.00 | 0.01 | 0.01 | 74 | 1014.8 |
| 20260509023000 | 53 | 175 | 0.0 | 0.0 | 0.00 | 0.01 | 0.01 | 73 | 1014.9 |
| 20260509021603 | 54 | 175 | 0.0 | 0.0 | 0.00 | 0.01 | 0.01 | 72 | 1015.0 |
| 20260509020100 | 54 | 176 | 0.0 | 0.0 | 0.00 | 0.01 | 0.01 | 70 | 1015.1 |
| 20260509014559 | 55 | 175 | 0.0 | 1.0 | 0.00 | 0.01 | 0.01 | 67 | 1014.9 |
| 20260509013110 | 56 | 175 | 0.0 | 1.0 | 0.00 | 0.01 | 0.01 | 67 | 1014.8 |
| 20260509011605 | 57 | 175 | 0.0 | 1.0 | 0.00 | 0.01 | 0.01 | 64 | 1014.7 |
| 20260509010059 | 59 | 175 | 0.0 | 0.0 | 0.00 | 0.01 | 0.01 | 61 | 1014.4 |
| 20260509004602 | 60 | 175 | 0.0 | 0.0 | 0.00 | 0.01 | 0.01 | 58 | 1014.4 |
| 20260509003057 | 62 | 175 | 0.0 | 0.0 | 0.00 | 0.01 | 0.01 | 55 | 1014.4 |
| 20260509001557 | 64 | 175 | 0.0 | 1.0 | 0.00 | 0.01 | 0.01 | 52 | 1014.2 |
| 20260509000056 | 66 | 175 | 0.0 | 3.0 | 0.00 | 0.01 | 0.01 | 50 | 1014.3 |
| 20260508234557 | 67 | 181 | 1.0 | 6.0 | 0.00 | 0.01 | 0.01 | 44 | 1014.3 |
| 20260508233100 | 68 | 211 | 1.0 | 5.0 | 0.00 | 0.01 | 0.01 | 43 | 1014.3 |
| 20260508231557 | 68 | 181 | 2.0 | 9.0 | 0.00 | 0.01 | 0.01 | 40 | 1014.0 |
| 20260508230054 | 69 | 194 | 1.0 | 6.0 | 0.00 | 0.01 | 0.01 | 38 | 1014.0 |
| 20260508224609 | 69 | 185 | 3.0 | 9.0 | 0.00 | 0.01 | 0.01 | 36 | 1014.0 |
| 20260508223052 | 70 | 185 | 4.0 | 9.0 | 0.00 | 0.01 | 0.01 | 36 | 1013.5 |
| 20260508221607 | 71 | 224 | 2.0 | 8.0 | 0.00 | 0.01 | 0.01 | 37 | 1013.8 |
| 20260508220051 | 71 | 97 | 2.0 | 7.0 | 0.00 | 0.01 | 0.01 | 35 | 1013.8 |
| 20260508214551 | 72 | 154 | 3.0 | 6.0 | 0.00 | 0.01 | 0.01 | 35 | 1013.7 |
| 20260508213050 | 73 | 152 | 5.0 | 11.0 | 0.00 | 0.01 | 0.01 | 32 | 1013.9 |
| 20260508211550 | 74 | 176 | 2.0 | 11.0 | 0.00 | 0.01 | 0.01 | 32 | 1013.9 |
| 20260508210049 | 75 | 15 | 2.0 | 10.0 | 0.00 | 0.01 | 0.01 | 31 | 1014.5 |
| 20260508204548 | 75 | 311 | 3.0 | 8.0 | 0.00 | 0.01 | 0.01 | 29 | 1014.5 |
| 20260508203052 | 75 | 188 | 4.0 | 9.0 | 0.00 | 0.01 | 0.01 | 29 | 1014.4 |
| 20260508201547 | 75 | 201 | 2.0 | 5.0 | 0.00 | 0.01 | 0.01 | 31 | 1014.4 |
| 20260508200055 | 75 | 198 | 1.0 | 6.0 | 0.00 | 0.01 | 0.01 | 31 | 1014.6 |
| 20260508194546 | 75 | 190 | 3.0 | 7.0 | 0.00 | 0.01 | 0.01 | 31 | 1014.7 |
| 20260508193055 | 74 | 171 | 3.0 | 10.0 | 0.00 | 0.01 | 0.01 | 30 | 1015.1 |
| 20260508191545 | 75 | 172 | 3.0 | 10.0 | 0.00 | 0.01 | 0.01 | 33 | 1015.2 |
| 20260508190043 | 75 | 172 | 3.0 | 6.0 | 0.00 | 0.02 | 0.01 | 32 | 1015.5 |
| 20260508184540 | 74 | 164 | 2.0 | 9.0 | 0.00 | 0.02 | 0.01 | 32 | 1015.6 |
| 20260508183053 | 74 | 214 | 3.0 | 6.0 | 0.00 | 0.02 | 0.01 | 32 | 1015.9 |
| 20260508181548 | 72 | 150 | 1.0 | 6.0 | 0.00 | 0.02 | 0.01 | 33 | 1016.2 |
| 20260508180036 | 72 | 119 | 0.0 | 9.0 | 0.00 | 0.02 | 0.01 | 31 | 1016.5 |
| 20260508174536 | 73 | 189 | 1.0 | 8.0 | 0.00 | 0.02 | 0.01 | 34 | 1016.6 |
| 20260508173036 | 72 | 148 | 1.0 | 5.0 | 0.00 | 0.02 | 0.01 | 34 | 1016.9 |
| 20260508171536 | 71 | 138 | 2.0 | 5.0 | 0.00 | 0.02 | 0.01 | 36 | 1016.9 |
| 20260508170029 | 71 | 142 | 1.0 | 7.0 | 0.00 | 0.02 | 0.01 | 38 | 1017.3 |
| 20260508164526 | 70 | 131 | 1.0 | 6.0 | 0.00 | 0.02 | 0.01 | 41 | 1017.6 |
| 20260508163026 | 69 | 150 | 3.0 | 8.0 | 0.00 | 0.02 | 0.01 | 40 | 1018.0 |
| 20260508161531 | 68 | 210 | 3.0 | 7.0 | 0.00 | 0.02 | 0.01 | 43 | 1018.0 |
| 20260508160019 | 68 | 165 | 4.0 | 9.0 | 0.00 | 0.02 | 0.01 | 45 | 1018.1 |
| 20260508154512 | 67 | 202 | 3.0 | 6.0 | 0.00 | 0.02 | 0.01 | 44 | 1018.3 |
| 20260508153008 | 66 | 175 | 2.0 | 6.0 | 0.00 | 0.02 | 0.01 | 44 | 1018.3 |
| 20260508151505 | 65 | 202 | 2.0 | 5.0 | 0.00 | 0.02 | 0.01 | 48 | 1018.4 |
| 20260508150125 | 64 | 126 | 1.0 | 3.0 | 0.00 | 0.02 | 0.01 | 52 | 1018.5 |
| 20260508144603 | 62 | 235 | 0.0 | 2.0 | 0.00 | 0.02 | 0.01 | 58 | 1018.6 |
| 20260508143054 | 60 | 229 | 0.0 | 3.0 | 0.00 | 0.02 | 0.01 | 63 | 1018.6 |
| 20260508141558 | 59 | 221 | 0.0 | 2.0 | 0.00 | 0.02 | 0.01 | 74 | 1018.5 |
| 20260508140054 | 56 | 220 | 1.0 | 3.0 | 0.00 | 0.03 | 0.01 | 88 | 1018.4 |
| 20260508134538 | 53 | 237 | 0.0 | 3.0 | 0.00 | 0.03 | 0.01 | 95 | 1018.3 |
| 20260508133040 | 52 | 10 | 0.0 | 2.0 | 0.00 | 0.03 | 0.01 | 96 | 1018.2 |
| 20260508131530 | 51 | 223 | 0.0 | 3.0 | 0.00 | 0.03 | 0.01 | 96 | 1018.2 |
| 20260508130028 | 49 | 10 | 0.0 | 1.0 | 0.00 | 0.04 | 0.01 | 96 | 1018.3 |
| 20260508124524 | 47 | 226 | 0.0 | 0.0 | 0.00 | 0.04 | 0.01 | 96 | 1018.2 |
| 20260508123025 | 47 | 226 | 0.0 | 1.0 | 0.00 | 0.04 | 0.01 | 96 | 1018.1 |
| 20260508121524 | 45 | 10 | 0.0 | 1.0 | 0.00 | 0.04 | 0.01 | 95 | 1018.0 |
| 20260508120022 | 44 | 10 | 0.0 | 2.0 | 0.00 | 0.04 | 0.01 | 95 | 1017.9 |
| 20260508114528 | 42 | 10 | 0.0 | 1.0 | 0.00 | 0.04 | 0.01 | 94 | 1017.9 |
| 20260508113014 | 41 | 10 | 0.0 | 2.0 | 0.00 | 0.04 | 0.01 | 94 | 1017.6 |
| 20260508111512 | 41 | 10 | 0.0 | 0.0 | 0.00 | 0.04 | 0.01 | 94 | 1017.2 |
| 20260508110008 | 40 | 10 | 0.0 | 0.0 | 0.00 | 0.04 | 0.01 | 94 | 1016.8 |
| 20260508104506 | 41 | 10 | 0.0 | 0.0 | 0.00 | 0.04 | 0.01 | 94 | 1016.7 |
| 20260508103004 | 41 | 10 | 0.0 | 0.0 | 0.01 | 0.04 | 0.01 | 94 | 1016.5 |
| 20260508101503 | 41 | 227 | 0.0 | 0.0 | 0.01 | 0.04 | 0.01 | 94 | 1016.1 |
| 20260508100100 | 42 | 227 | 0.0 | 1.0 | 0.01 | 0.05 | 0.01 | 94 | 1016.0 |
| 20260508094557 | 42 | 227 | 0.0 | 1.0 | 0.01 | 0.05 | 0.01 | 94 | 1015.7 |
| 20260508093056 | 43 | 10 | 0.0 | 1.0 | 0.00 | 0.04 | 0.00 | 94 | 1015.7 |
| 20260508091553 | 43 | 10 | 0.0 | 0.0 | 0.00 | 0.04 | 0.00 | 94 | 1015.6 |
| 20260508090052 | 44 | 10 | 0.0 | 0.0 | 0.00 | 0.04 | 0.00 | 94 | 1015.5 |
| 20260508084549 | 44 | 10 | 0.0 | 0.0 | 0.00 | 0.04 | 0.00 | 94 | 1015.2 |
| 20260508083047 | 44 | 10 | 0.0 | 0.0 | 0.00 | 0.04 | 0.00 | 94 | 1015.1 |
| 20260508081545 | 45 | 10 | 0.0 | 0.0 | 0.00 | 0.04 | 0.00 | 94 | 1015.0 |
| 20260508080043 | 45 | 10 | 0.0 | 2.0 | 0.00 | 0.04 | 0.00 | 93 | 1014.8 |
| 20260508074540 | 46 | 10 | 1.0 | 2.0 | 0.00 | 0.04 | 0.00 | 94 | 1014.7 |
| 20260508073040 | 46 | 226 | 0.0 | 1.0 | 0.00 | 0.04 | 0.00 | 94 | 1014.6 |
| 20260508071539 | 47 | 10 | 0.0 | 0.0 | 0.00 | 0.04 | 0.00 | 94 | 1014.4 |
| 20260508070037 | 47 | 10 | 0.0 | 1.0 | 0.00 | 0.05 | 0.00 | 94 | 1014.3 |
| 20260508064555 | 48 | 10 | 0.0 | 0.0 | 0.00 | 0.05 | 0.00 | 94 | 1014.3 |
| 20260508063033 | 48 | 10 | 0.0 | 1.0 | 0.00 | 0.05 | 0.00 | 94 | 1014.4 |
| 20260508061532 | 48 | 225 | 0.0 | 4.0 | 0.00 | 0.05 | 0.00 | 94 | 1014.5 |
| 20260508060037 | 47 | 240 | 0.0 | 1.0 | 0.00 | 0.05 | 0.00 | 93 | 1014.2 |
| 20260508054548 | 47 | 10 | 0.0 | 2.0 | 0.00 | 0.05 | 0.00 | 93 | 1014.2 |
| 20260508053029 | 47 | 10 | 0.0 | 1.0 | 0.00 | 0.05 | 0.00 | 93 | 1014.1 |
| 20260508051530 | 47 | 241 | 0.0 | 0.0 | 0.00 | 0.05 | 0.00 | 93 | 1014.2 |
| 20260508050034 | 47 | 10 | 0.0 | 1.0 | 0.00 | 0.07 | 0.00 | 93 | 1013.9 |
| 20260508044525 | 48 | 10 | 0.0 | 0.0 | 0.00 | 0.07 | 0.00 | 92 | 1013.7 |
| 20260508043030 | 48 | 10 | 0.0 | 0.0 | 0.00 | 0.07 | 0.00 | 92 | 1013.7 |
| 20260508041521 | 49 | 10 | 0.0 | 0.0 | 0.00 | 0.07 | 0.00 | 92 | 1013.6 |
| 20260508040016 | 49 | 240 | 0.0 | 0.0 | 0.00 | 0.11 | 0.07 | 92 | 1013.6 |
| 20260508034522 | 50 | 10 | 0.0 | 0.0 | 0.00 | 0.11 | 0.07 | 92 | 1013.5 |
| 20260508033014 | 50 | 240 | 0.0 | 0.0 | 0.00 | 0.11 | 0.07 | 92 | 1013.4 |
| 20260508031511 | 51 | 10 | 0.0 | 0.0 | 0.00 | 0.11 | 0.07 | 92 | 1013.3 |